Temp
47 47 47 47 46 46 46 46 46 46 46 46 46 46 46 47 46 40 37 39 34 28 31 34 34 30 31 30 24 28 28 30 29 24 24 24 25 30 30 37 35 32 29 31 33 31 33 47 51 46 51 53 54 54
47 47 46 46 46 46 45 46 46 46 46 46 46 46 46 46 47 42 34 38 38 31 31 36 38 39 37 36 31 30 26 26 30 27 28 27 25 29 27 28 37 30 36 33 36 36 45 47 45 48 49 53 55 56
46 46 46 46 46 46 45 45 45 45 46 46 46 46 46 47 47 45 37 36 35 31 30 30 34 39 38 38 41 29 31 32 32 34 30 28 23 29 24 26 29 33 37 37 37 42 45 46 49 50 49 49 53 57
46 46 46 46 46 45 45 45 46 45 45 46 46 46 46 46 47 46 37 38 35 31 22 28 39 36 42 39 37 38 37 36 35 34 30 27 25 33 27 29 28 33 33 34 35 40 43 48 48 48 49 50 51 56
46 46 45 45 45 45 45 45 45 45 46 46 46 47 46 46 47 44 39 38 38 31 23 25 35 37 39 38 36 36 35 34 31 30 28 27 32 32 32 32 30 36 32 30 31 36 38 43 47 49 48 48 48 50
46 46 45 45 45 45 45 45 45 45 45 46 46 47 46 45 45 36 31 36 39 36 27 20 33 34 37 38 35 33 34 34 34 30 29 32 36 31 27 27 37 35 38 40 35 42 42 44 48 50 49 48 49 49
45 45 45 45 45 45 44 45 45 45 45 46 46 47 47 46 38 33 31 35 40 37 27 22 25 35 35 36 35 34 35 34 33 31 28 33 34 34 27 27 38 40 42 41 43 43 41 44 42 49 50 51 50 52
45 45 45 45 44 44 44 44 44 45 46 46 46 46 46 44 41 34 37 39 38 31 29 19 23 28 35 31 30 33 31 32 31 32 31 30 34 32 24 35 38 41 42 42 41 43 44 46 49 49 50 50 49 48
45 44 44 44 44 44 44 44 44 45 46 46 45 43 40 37 32 34 41 40 36 31 22 23 21 19 33 30 29 31 31 25 32 28 29 32 29 24 33 36 37 40 40 41 44 44 43 44 45 46 48 47 47 47
44 44 44 44 44 44 44 44 45 45 46 44 37 29 27 33 42 39 32 30 29 28 29 23 28 22 29 28 28 27 28 26 22 29 33 27 28 37 39 40 41 41 43 44 39 39 40 39 42 43 45 46 47 47
44 44 44 44 44 44 44 45 45 45 43 33 30 29 35 40 32 25 21 19 22 19 23 27 27 24 31 25 25 27 24 27 21 27 26 26 26 34 39 38 40 42 43 43 44 44 44 43 42 40 42 44 44 45
44 44 43 43 44 44 45 45 45 41 35 35 34 37 33 27 21 17 17 22 22 20 27 25 27 28 30 31 26 28 23 26 19 30 24 22 32 38 37 39 40 40 41 41 42 42 43 43 42 43 42 42 43 44
43 43 43 43 44 44 45 45 45 40 39 34 29 26 24 19 11 15 10 18 19 27 28 28 26 29 29 30 26 25 22 21 29 22 22 29 35 37 37 39 39 40 42 41 42 42 41 41 42 42 40 41 42 40
42 42 43 44 44 44 44 43 42 40 35 26 21 17 19 13 18 21 24 26 30 30 30 29 27 25 29 26 27 21 28 28 19 17 23 32 35 36 37 39 40 39 40 41 40 41 40 39 37 37 36 35 34 35
42 42 44 43 44 44 43 43 42 36 29 23 24 15 19 26 27 28 30 29 31 32 30 29 28 27 26 25 27 26 21 19 23 23 29 33 35 36 38 39 40 40 40 40 41 40 39 38 37 38 35 38 38 33
42 43 40 42 44 44 43 42 36 34 30 27 26 23 26 25 24 25 27 28 33 30 31 30 26 21 21 25 23 20 22 20 26 32 34 35 36 38 38 39 39 39 40 40 41 41 40 38 37 40 39 39 30 32
42 35 40 44 44 44 43 35 32 31 29 28 22 27 27 26 25 28 29 31 32 30 27 27 21 22 26 21 22 28 24 31 33 35 36 36 37 39 39 39 40 40 41 41 41 41 40 40 40 40 39 41 39 39
33 37 39 40 40 40 34 34 30 28 26 27 23 25 26 29 28 29 30 31 31 31 30 28 31 23 20 20 23 30 32 33 34 34 35 36 38 39 38 40 40 40 40 40 40 39 40 39 39 39 40 40 40 40
37 36 39 40 40 34 28 29 31 24 26 27 27 29 29 30 31 34 33 33 34 34 32 29 26 25 27 30 31 33 34 33 33 35 35 37 38 38 38 39 38 38 38 39 39 39 39 39 39 39 39 39 38 39
42 42 42 42 40 33 29 30 32 26 23 26 28 28 29 30 33 31 32 31 31 30 27 25 27 32 31 35 37 37 37 37 34 33 34 37 39 38 38 38 38 38 37 37 37 33 37 38 39 39 38 38 37 36
38 36 40 39 36 35 30 27 28 30 29 26 28 28 28 29 29 28 30 31 27 27 26 31 33 35 37 37 38 37 36 36 35 36 38 35 38 36 37 36 36 36 35 35 34 35 34 34 35 37 36 35 35 35
30 39 36 37 32 32 31 31 27 27 25 27 26 25 24 22 25 27 30 28 28 30 31 31 33 35 35 35 36 36 37 37 36 35 30 31 33 34 33 34 33 33 33 33 32 31 32 33 34 34 33 33 34 34
37 36 33 33 28 28 24 26 26 26 22 23 26 23 22 23 24 31 28 30 31 31 31 31 31 33 32 34 35 35 34 34 34 34 33 33 32 32 32 32 33 31 31 32 31 30 29 31 31 31 31 31 31 31
36 31 25 26 27 21 26 22 27 27 26 25 22 19 21 23 29 26 24 28 29 31 29 29 30 30 31 31 30 31 32 31 30 29 29 30 31 31 31 31 32 31 29 29 29 30 30 28 28 29 28 27 27 26
22 21 25 21 26 23 20 21 25 25 23 24 23 19 22 27 22 21 22 22 24 26 27 30 30 30 29 30 31 31 31 31 31 29 28 30 29 31 30 30 29 29 28 27 26 26 26 26 25 25 25 25 24 24
18 16 18 19 21 20 19 16 15 20 22 15 21 26 26 22 19 17 22 24 26 23 26 29 29 29 29 29 28 28 29 31 32 29 28 29 28 26 25 24 24 26 27 26 25 23 23 23 23 22 23 24 23 23
9 12 22 28 27 26 20 22 26 23 16 14 20 17 18 17 15 20 23 25 26 26 29 31 31 29 29 29 28 28 29 29 29 28 28 28 27 27 26 23 22 24 26 25 22 21 20 21 21 22 22 24 24 23
19 21 15 21 22 24 21 15 16 16 19 25 21 14 15 15 18 24 26 27 27 28 28 30 30 30 28 27 27 26 25 25 24 25 25 25 25 25 24 24 26 26 26 24 24 23 22 22 21 22 22 22 23 25
21 22 20 17 17 18 21 19 19 22 26 24 18 17 19 23 24 26 26 25 26 27 25 26 27 28 26 25 25 25 24 23 23 19 19 19 20 23 23 22 22 22 22 24 23 25 24 24 22 22 22 23 24 24
15 23 15 15 11 14 19 22 20 18 21 23 24 23 23 23 22 20 23 24 24 24 26 27 27 26 26 24 22 23 25 25 25 24 23 22 22 23 20 21 20 20 22 22 22 23 22 23 24 23 22 21 22 21
21 17 13 15 13 15 15 18 15 13 12 15 12 20 21 18 21 19 19 20 21 20 24 25 26 28 24 23 24 25 24 23 19 18 21 21 20 20 18 16 16 18 19 20 20 20 20 20 20 19 19 19 18 19
13 15 13 15 16 18 19 21 13 13 15 18 17 14 15 18 18 21 18 18 21 22 20 27 28 28 29 27 23 21 17 21 17 16 17 18 19 15 14 14 14 17 17 16 17 17 16 16 15 16 16 16 16 16
12 11 8 17 18 19 20 16 17 15 12 17 18 17 15 18 17 20 24 23 24 23 26 30 28 24 22 22 21 19 13 15 11 12 9 8 5 9 12 14 15 15 14 14 14 15 14 13 12 12 12 12 12 13
MSLP
1028.09 1027.97 1027.88 1027.63 1027.38 1027.25 1027.22 1027.01 1026.77 1026.43 1026.12 1025.84 1025.61 1025.37 1025.06 1024.78 1024.63 1024.98 1025.03 1024.95 1025.17 1025.04 1023.73 1023.20 1023.02 1022.67 1022.43 1022.36 1021.97 1021.17 1020.46 1019.46 1018.64 1017.91 1017.14 1016.14 1014.64 1013.09 1011.89 1010.04 1009.50 1009.66 1010.11 1008.80 1008.04 1007.44 1006.70 1005.84 1004.85 1005.06 1004.54 1003.46 1003.17 1003.25
1027.65 1027.55 1027.42 1027.23 1027.03 1026.85 1026.80 1026.64 1026.44 1026.09 1025.78 1025.47 1025.28 1025.07 1024.81 1024.56 1024.36 1024.73 1025.04 1024.91 1024.85 1024.91 1023.59 1023.04 1022.43 1022.11 1021.96 1021.76 1022.11 1021.65 1021.25 1020.72 1019.68 1019.04 1018.45 1017.56 1016.30 1014.80 1013.70 1011.58 1010.42 1010.19 1009.27 1009.16 1008.88 1008.26 1007.62 1007.02 1006.66 1006.10 1005.65 1004.49 1003.82 1003.51
1027.13 1027.17 1027.07 1026.84 1026.57 1026.41 1026.38 1026.24 1026.03 1025.73 1025.39 1025.12 1024.83 1024.58 1024.29 1024.08 1023.96 1024.03 1024.48 1024.83 1024.91 1024.42 1023.31 1022.64 1021.43 1020.90 1020.94 1021.03 1021.18 1021.35 1020.89 1020.44 1020.05 1019.76 1019.11 1018.50 1017.50 1016.39 1014.92 1013.89 1012.54 1011.00 1010.29 1009.51 1009.61 1009.03 1008.36 1007.56 1007.16 1006.70 1006.20 1005.57 1004.80 1004.11
1026.66 1026.65 1026.64 1026.52 1026.22 1026.05 1025.97 1025.80 1025.54 1025.35 1025.03 1024.66 1024.34 1023.99 1023.68 1023.41 1023.25 1023.27 1023.81 1023.90 1024.43 1024.39 1023.84 1021.80 1020.87 1020.50 1019.77 1020.07 1020.50 1020.54 1020.20 1020.26 1020.17 1019.88 1019.09 1018.74 1017.93 1017.00 1015.88 1015.23 1014.35 1012.80 1011.75 1010.47 1010.21 1009.76 1008.85 1008.21 1007.71 1007.25 1006.62 1006.12 1005.36 1004.63
1026.08 1026.06 1026.05 1026.06 1025.87 1025.69 1025.56 1025.36 1025.09 1024.83 1024.47 1024.11 1023.65 1023.21 1022.88 1022.53 1022.48 1022.53 1022.87 1022.98 1023.14 1024.08 1023.40 1021.91 1020.84 1019.61 1019.40 1019.49 1019.59 1019.89 1020.08 1020.22 1020.26 1019.75 1019.20 1018.63 1017.73 1016.90 1016.01 1015.22 1013.83 1013.00 1012.59 1011.79 1011.27 1011.25 1010.66 1009.22 1008.71 1008.26 1007.49 1006.92 1006.11 1005.52
1025.41 1025.41 1025.42 1025.44 1025.40 1025.19 1025.04 1024.85 1024.61 1024.36 1023.96 1023.55 1023.06 1022.56 1022.18 1021.82 1021.93 1022.50 1022.41 1022.37 1022.41 1022.92 1023.32 1022.51 1020.68 1019.55 1019.21 1019.01 1019.01 1019.33 1019.69 1020.03 1019.90 1019.53 1018.99 1018.26 1017.66 1017.30 1015.95 1014.60 1013.16 1013.26 1013.06 1012.57 1012.27 1011.62 1010.91 1010.06 1009.51 1009.27 1008.63 1007.96 1007.31 1006.73
1024.74 1024.81 1024.88 1024.84 1024.81 1024.61 1024.49 1024.29 1024.10 1023.82 1023.44 1022.97 1022.55 1022.03 1021.66 1021.59 1022.08 1022.40 1022.49 1022.35 1022.35 1022.93 1023.40 1022.55 1021.02 1019.64 1019.30 1019.03 1019.01 1019.24 1019.47 1019.44 1019.41 1019.04 1018.54 1017.83 1017.27 1016.85 1016.05 1014.16 1013.07 1012.79 1012.38 1012.15 1012.09 1011.62 1011.05 1010.55 1010.41 1009.63 1008.93 1008.52 1008.04 1007.50
1024.28 1024.23 1024.26 1024.26 1024.21 1023.99 1023.85 1023.72 1023.54 1023.18 1022.79 1022.47 1022.07 1021.78 1021.48 1021.44 1021.63 1022.00 1022.11 1022.15 1022.43 1022.96 1023.19 1022.81 1021.36 1020.23 1019.42 1019.15 1019.08 1019.15 1019.11 1019.15 1018.83 1018.19 1018.04 1017.45 1016.92 1016.44 1015.09 1013.51 1012.98 1012.58 1012.37 1012.10 1012.13 1011.95 1011.52 1010.79 1010.16 1009.67 1009.13 1008.89 1008.67 1008.32
1023.64 1023.70 1023.69 1023.70 1023.58 1023.34 1023.16 1023.04 1022.88 1022.51 1022.12 1021.85 1021.60 1021.61 1021.71 1021.92 1021.90 1021.95 1021.73 1022.31 1022.77 1023.13 1022.99 1022.69 1021.78 1020.83 1019.81 1019.56 1019.42 1019.14 1019.03 1018.73 1018.48 1017.81 1017.34 1016.93 1015.97 1015.12 1013.43 1012.90 1012.56 1012.34 1012.14 1011.77 1011.72 1011.55 1011.22 1010.74 1010.49 1010.08 1009.64 1009.73 1009.51 1009.30
1022.96 1023.04 1023.12 1023.08 1022.87 1022.58 1022.39 1022.16 1021.93 1021.65 1021.38 1021.32 1021.77 1022.31 1022.30 1022.02 1021.86 1022.19 1022.68 1022.97 1022.87 1022.85 1022.68 1022.15 1021.62 1021.00 1020.45 1019.85 1019.41 1019.38 1018.92 1018.49 1017.67 1017.17 1016.93 1016.35 1014.88 1013.58 1012.80 1012.27 1012.10 1012.00 1011.83 1011.65 1011.65 1011.49 1011.54 1011.68 1011.39 1010.94 1010.58 1010.33 1010.04 1009.71
1022.33 1022.44 1022.51 1022.35 1022.06 1021.74 1021.41 1021.13 1020.80 1020.61 1020.69 1021.60 1021.70 1022.09 1022.29 1022.19 1022.37 1022.83 1023.07 1023.10 1022.99 1022.79 1022.28 1021.50 1021.16 1020.77 1020.34 1020.18 1019.81 1019.51 1018.91 1018.20 1017.57 1016.96 1016.59 1015.49 1014.01 1012.67 1012.17 1011.73 1011.22 1011.17 1011.42 1011.43 1011.28 1011.46 1011.62 1011.81 1011.78 1011.50 1011.46 1011.46 1010.70 1010.28
1021.75 1021.93 1021.95 1021.58 1021.20 1020.77 1020.28 1019.71 1019.24 1019.45 1019.95 1020.72 1021.29 1021.89 1022.52 1023.06 1023.28 1023.49 1023.25 1023.00 1022.55 1021.73 1021.17 1020.93 1020.59 1020.54 1020.22 1020.14 1019.85 1019.24 1018.80 1018.22 1017.40 1017.00 1016.35 1014.69 1013.06 1012.34 1012.03 1011.44 1010.87 1010.67 1010.92 1011.16 1011.20 1011.13 1011.27 1011.37 1011.58 1011.70 1011.96 1011.37 1011.10 1011.01
1021.32 1021.49 1021.28 1020.81 1020.37 1019.90 1019.11 1018.29 1017.68 1018.98 1020.11 1021.10 1021.61 1022.32 1022.85 1023.62 1023.55 1023.20 1022.60 1021.97 1021.45 1020.76 1020.41 1020.36 1020.29 1020.18 1020.09 1019.98 1019.56 1019.11 1018.41 1017.60 1017.15 1016.42 1015.27 1013.87 1012.91 1012.49 1012.08 1011.68 1011.40 1011.29 1011.16 1011.15 1011.28 1011.28 1011.56 1011.81 1011.70 1011.81 1012.17 1012.32 1012.14 1011.65
1020.95 1020.96 1020.59 1020.10 1019.76 1019.15 1018.55 1018.64 1018.84 1019.34 1019.84 1020.94 1021.75 1022.55 1022.61 1022.83 1022.31 1021.36 1020.77 1020.34 1019.97 1019.84 1019.79 1019.87 1019.86 1019.98 1019.56 1019.41 1018.84 1018.43 1017.40 1016.97 1016.45 1015.75 1014.50 1013.54 1013.03 1012.67 1012.21 1011.99 1011.80 1011.97 1011.75 1011.81 1011.87 1011.91 1012.01 1012.22 1012.43 1012.42 1012.39 1012.41 1012.18 1012.21
1020.52 1020.37 1019.91 1019.61 1019.40 1018.79 1018.94 1019.22 1019.31 1019.58 1020.19 1020.94 1021.34 1021.59 1021.37 1020.68 1020.42 1020.16 1019.98 1019.80 1019.35 1019.27 1019.38 1019.48 1019.47 1019.53 1019.18 1018.84 1018.27 1017.65 1017.07 1016.31 1015.52 1014.81 1014.11 1013.58 1013.27 1013.01 1012.52 1012.30 1012.24 1012.30 1012.26 1012.20 1012.24 1012.37 1012.59 1012.71 1012.70 1012.72 1012.81 1012.95 1012.98 1013.05
1020.04 1019.69 1019.49 1019.32 1019.04 1019.05 1019.46 1019.53 1019.70 1019.77 1020.25 1020.63 1020.74 1020.62 1020.29 1020.31 1019.82 1019.66 1019.37 1018.97 1018.75 1018.89 1019.09 1019.16 1018.98 1018.97 1018.51 1017.88 1017.42 1016.84 1016.18 1015.36 1014.71 1014.18 1013.81 1013.56 1013.31 1013.10 1012.94 1012.76 1012.67 1012.62 1012.53 1012.52 1012.56 1012.59 1012.58 1012.66 1012.83 1012.83 1012.89 1013.05 1013.33 1013.25
1019.52 1019.51 1019.45 1018.51 1018.97 1019.32 1019.55 1019.70 1019.80 1019.89 1020.05 1020.21 1019.96 1019.70 1019.62 1019.45 1019.05 1018.57 1018.36 1018.08 1018.15 1018.44 1018.32 1018.41 1018.29 1017.78 1017.69 1017.10 1016.39 1015.71 1015.17 1014.49 1014.19 1014.01 1013.83 1013.77 1013.56 1013.32 1013.09 1012.90 1012.80 1012.72 1012.66 1012.64 1012.65 1012.64 1012.69 1012.68 1012.66 1012.66 1012.61 1012.65 1012.83 1012.90
1019.22 1019.41 1019.50 1019.47 1019.51 1019.71 1019.81 1019.88 1020.09 1020.18 1019.95 1019.36 1019.42 1018.72 1018.84 1018.42 1018.05 1017.66 1017.44 1017.40 1017.63 1017.51 1017.43 1017.08 1016.76 1016.79 1016.33 1015.85 1015.15 1014.55 1014.21 1014.06 1014.02 1013.95 1013.79 1013.63 1013.46 1013.36 1013.31 1013.10 1013.05 1013.10 1013.06 1013.00 1012.97 1012.90 1012.82 1012.75 1012.70 1012.59 1012.51 1012.40 1012.35 1012.33
1018.76 1019.27 1019.45 1019.49 1019.45 1019.80 1019.98 1020.00 1020.07 1019.87 1019.14 1018.87 1018.48 1018.24 1017.96 1017.41 1016.81 1016.34 1016.30 1016.42 1016.52 1016.58 1016.52 1016.34 1015.79 1015.01 1014.53 1014.20 1013.91 1013.80 1013.72 1013.72 1013.75 1013.63 1013.52 1013.34 1013.31 1013.29 1013.23 1013.20 1013.15 1013.14 1013.17 1013.10 1013.01 1012.96 1012.92 1012.83 1012.73 1012.61 1012.47 1012.37 1012.22 1011.94
1018.41 1018.79 1018.97 1019.19 1019.40 1019.75 1019.86 1019.81 1019.85 1019.54 1018.88 1017.98 1017.74 1017.32 1016.97 1016.32 1015.67 1015.51 1015.48 1015.78 1016.07 1016.31 1015.96 1015.05 1013.94 1013.43 1013.39 1013.21 1013.21 1013.17 1013.12 1013.24 1013.60 1013.62 1013.35 1013.07 1012.95 1013.05 1013.03 1013.06 1012.97 1013.00 1013.01 1012.98 1013.00 1013.00 1012.88 1012.67 1012.52 1012.36 1012.20 1012.00 1011.81 1011.35
1018.39 1018.50 1018.49 1019.00 1019.06 1019.34 1019.52 1019.33 1019.17 1018.56 1018.03 1017.72 1017.03 1016.86 1016.28 1015.84 1015.45 1015.07 1014.86 1014.96 1015.30 1014.78 1014.12 1013.43 1013.02 1012.82 1012.67 1012.73 1012.74 1012.77 1012.88 1013.13 1013.12 1013.10 1012.89 1012.90 1012.71 1012.84 1012.77 1012.81 1012.85 1012.89 1013.00 1013.01 1013.00 1012.81 1012.78 1012.57 1012.40 1012.19 1011.90 1011.57 1011.29 1010.98
1018.10 1018.00 1018.17 1018.71 1018.79 1018.79 1018.85 1018.54 1018.48 1018.28 1018.16 1017.12 1017.01 1016.67 1016.26 1015.76 1015.16 1014.70 1014.50 1014.58 1014.23 1013.68 1013.47 1013.18 1012.96 1012.77 1012.78 1012.69 1012.48 1012.54 1012.50 1012.66 1012.71 1012.77 1012.73 1012.85 1012.86 1012.76 1012.74 1012.87 1012.94 1012.90 1012.94 1012.90 1012.91 1012.83 1012.67 1012.47 1012.21 1011.92 1011.60 1011.18 1010.86 1010.38
1017.71 1017.87 1017.94 1018.26 1018.66 1018.37 1018.20 1018.30 1018.25 1017.68 1017.64 1016.97 1016.66 1016.47 1016.07 1015.69 1015.08 1014.75 1014.44 1013.99 1013.83 1013.94 1013.82 1013.58 1013.29 1013.03 1012.76 1012.51 1012.50 1012.47 1012.53 1012.54 1012.43 1012.46 1012.62 1012.79 1012.89 1013.00 1013.05 1013.05 1013.06 1013.09 1013.07 1013.04 1013.12 1013.00 1012.66 1012.39 1012.04 1011.71 1011.36 1010.94 1010.38 1009.76
1017.75 1017.75 1017.84 1017.83 1017.84 1017.94 1017.96 1017.89 1017.55 1017.27 1017.05 1016.94 1016.74 1016.29 1015.64 1015.24 1015.02 1014.88 1014.59 1014.22 1014.13 1014.09 1014.01 1013.80 1013.55 1013.16 1012.99 1013.00 1012.92 1012.87 1012.87 1012.92 1012.95 1013.20 1013.37 1013.26 1013.14 1013.22 1013.27 1013.25 1013.34 1013.51 1013.69 1013.58 1013.31 1013.02 1012.69 1012.37 1012.07 1011.64 1011.28 1010.80 1010.26 1009.69
1017.69 1017.79 1017.68 1017.31 1017.12 1017.47 1017.48 1017.15 1016.86 1016.84 1016.56 1016.55 1016.30 1015.77 1015.22 1015.18 1015.18 1015.12 1014.79 1014.57 1014.43 1014.38 1014.20 1013.94 1013.69 1013.57 1013.42 1013.27 1013.14 1013.25 1013.34 1013.25 1013.11 1013.34 1013.70 1013.72 1013.66 1013.56 1013.57 1013.62 1013.74 1013.93 1014.02 1013.72 1013.50 1013.26 1012.92 1012.58 1012.22 1011.83 1011.34 1010.87 1010.29 1009.55
1016.89 1016.78 1016.64 1016.31 1016.37 1016.49 1016.47 1016.67 1016.69 1016.26 1016.23 1016.19 1015.85 1015.39 1015.28 1015.42 1015.56 1015.33 1014.73 1014.46 1014.40 1014.40 1014.09 1013.88 1013.79 1013.71 1013.67 1013.71 1013.68 1013.69 1013.76 1013.72 1013.53 1013.61 1013.94 1014.03 1014.09 1014.12 1014.09 1014.09 1014.11 1014.21 1014.41 1014.22 1013.96 1013.64 1013.29 1012.92 1012.48 1012.01 1011.50 1011.01 1010.51 1009.78
1016.27 1015.92 1015.69 1015.52 1015.45 1015.67 1016.06 1015.98 1015.88 1015.92 1015.97 1015.91 1015.48 1015.63 1015.69 1015.84 1015.61 1014.72 1014.26 1014.23 1014.10 1013.90 1013.79 1013.71 1013.69 1013.74 1013.76 1013.86 1014.05 1014.16 1014.19 1014.11 1014.00 1014.18 1014.37 1014.52 1014.66 1014.71 1014.73 1014.78 1014.72 1014.83 1014.68 1014.52 1014.36 1014.13 1013.78 1013.34 1012.85 1012.42 1011.91 1011.35 1010.80 1010.22
1014.62 1014.83 1015.24 1015.39 1015.44 1015.42 1015.59 1015.79 1015.71 1015.58 1015.15 1014.96 1015.27 1015.58 1015.53 1014.91 1014.48 1013.86 1013.66 1013.52 1013.58 1013.63 1013.71 1013.77 1013.70 1013.77 1013.91 1014.11 1014.30 1014.49 1014.66 1014.76 1014.86 1014.83 1014.90 1015.04 1015.14 1015.12 1015.12 1015.14 1015.05 1014.97 1014.84 1014.72 1014.48 1014.27 1014.01 1013.69 1013.26 1012.89 1012.43 1011.85 1011.37 1010.89
1014.33 1014.45 1014.89 1015.47 1015.60 1015.45 1015.25 1015.09 1015.01 1014.57 1014.02 1014.37 1014.70 1014.62 1014.53 1014.18 1013.76 1013.55 1013.46 1013.50 1013.54 1013.68 1013.84 1013.92 1013.97 1014.04 1014.27 1014.39 1014.62 1014.81 1014.95 1015.03 1015.08 1015.08 1015.11 1015.23 1015.40 1015.38 1015.35 1015.27 1015.21 1015.20 1015.03 1014.79 1014.59 1014.37 1014.26 1013.91 1013.64 1013.40 1013.06 1012.71 1012.30 1011.85
1014.08 1014.13 1014.68 1015.15 1015.25 1014.77 1014.19 1013.96 1014.19 1014.10 1013.96 1013.89 1013.89 1014.14 1014.14 1013.85 1013.46 1013.49 1013.50 1013.53 1013.60 1013.66 1013.60 1013.66 1013.71 1013.92 1014.06 1014.33 1014.69 1014.91 1014.90 1014.92 1015.05 1015.19 1015.17 1015.27 1015.35 1015.44 1015.61 1015.49 1015.45 1015.37 1015.10 1014.90 1014.94 1014.74 1014.47 1014.18 1013.98 1013.75 1013.62 1013.50 1013.24 1012.98
1013.23 1013.90 1014.36 1014.54 1014.52 1014.09 1014.00 1014.17 1014.55 1014.75 1014.60 1014.53 1014.59 1014.64 1014.73 1014.49 1013.62 1013.50 1013.57 1013.50 1013.46 1013.69 1013.71 1013.72 1013.71 1013.78 1013.96 1014.17 1014.35 1014.54 1014.73 1014.95 1015.14 1015.24 1015.21 1015.33 1015.51 1015.65 1015.84 1015.90 1015.79 1015.65 1015.47 1015.42 1015.44 1015.31 1015.12 1015.02 1014.91 1014.84 1014.79 1014.70 1014.54 1014.26
1013.31 1013.50 1013.89 1014.16 1014.07 1013.88 1014.12 1014.30 1014.65 1014.82 1014.98 1014.96 1014.88 1015.04 1015.06 1014.99 1014.62 1013.59 1013.56 1013.55 1013.56 1013.53 1013.34 1013.37 1013.42 1013.47 1013.65 1013.87 1014.27 1014.55 1014.67 1014.85 1015.16 1015.42 1015.51 1015.65 1015.78 1016.04 1016.16 1016.14 1016.05 1015.94 1015.95 1016.07 1016.06 1015.96 1015.96 1016.09 1016.16 1016.09 1016.05 1016.02 1015.90 1015.72
1013.20 1013.37 1013.70 1013.80 1013.82 1013.86 1013.90 1014.33 1014.74 1015.10 1015.22 1014.86 1014.65 1014.62 1014.49 1014.50 1014.15 1013.42 1013.09 1013.21 1013.22 1013.18 1013.00 1012.98 1013.21 1013.41 1013.62 1013.80 1014.18 1014.58 1014.91 1015.14 1015.30 1015.49 1015.65 1015.86 1016.09 1016.31 1016.41 1016.44 1016.44 1016.48 1016.54 1016.71 1016.78 1016.82 1016.96 1017.08 1017.28 1017.39 1017.43 1017.39 1017.31 1017.16
Wind_Speed
13 13 13 14 14 14 13 14 18 16 15 13 13 13 14 13 12 3 2 4 3 2 8 5 4 5 6 5 5 6 8 1 4 6 4 4 4 5 6 5 4 9 2 2 2 2 3 11 3 5 3 3 2 6
13 13 13 14 14 15 12 15 18 17 16 13 13 14 14 14 14 4 2 1 2 3 6 3 11 15 16 18 8 3 3 3 3 2 3 3 3 4 6 4 8 5 7 2 3 3 4 3 3 7 9 4 2 3
13 14 14 13 13 14 13 16 17 17 17 16 15 16 16 15 13 8 2 2 1 3 6 3 5 2 5 12 11 3 3 4 2 3 1 2 4 4 4 5 9 7 10 3 5 3 7 7 5 9 9 7 6 1
13 14 13 14 14 12 14 16 17 17 18 18 18 17 17 17 15 11 3 4 2 2 4 6 3 8 5 8 11 12 8 1 1 2 0 2 3 2 2 6 6 5 11 2 3 4 10 2 10 11 14 9 7 4
13 14 13 14 14 13 15 17 16 17 18 19 20 21 23 17 15 10 3 5 6 3 3 6 8 5 2 8 12 11 11 6 2 3 2 3 3 4 3 4 5 2 4 3 4 5 6 9 11 11 12 13 12 9
13 14 13 13 13 14 15 17 16 18 20 20 20 21 16 15 14 2 2 2 6 4 1 4 4 5 4 4 6 9 8 5 4 3 3 3 3 3 3 3 4 2 6 7 5 11 12 11 7 6 7 10 12 12
13 14 13 13 13 15 16 18 17 18 19 20 19 19 12 6 3 2 3 1 8 4 2 4 5 3 3 2 1 2 6 2 3 2 3 3 4 4 3 6 4 3 3 6 11 12 2 8 6 12 6 8 9 10
13 14 13 13 14 16 17 18 19 19 20 20 18 15 8 3 5 2 1 9 7 3 1 1 5 5 4 2 1 1 3 3 5 3 1 3 2 3 5 9 12 10 9 7 3 10 8 11 10 8 8 6 10 11
13 12 12 14 15 17 19 19 19 20 21 20 16 3 2 2 0 1 9 10 1 2 2 2 2 4 4 1 2 1 1 2 0 3 3 4 3 7 10 11 10 9 6 5 4 2 11 12 11 13 11 4 3 6
13 12 13 15 17 18 20 22 21 22 22 13 4 3 1 1 10 6 3 0 1 1 1 4 1 4 2 3 2 2 1 2 2 2 2 3 6 15 15 15 13 10 9 7 8 6 2 12 9 12 12 8 3 4
12 12 14 16 18 20 23 24 24 23 13 2 2 2 1 4 2 3 1 1 1 2 3 3 4 4 1 2 2 1 2 2 3 1 3 3 4 4 4 9 10 13 14 14 13 11 8 7 7 4 9 4 5 6
11 12 15 17 19 23 24 26 24 9 3 6 5 4 3 2 3 4 1 2 4 3 3 3 2 3 2 1 2 2 2 2 4 0 2 3 4 4 7 7 8 3 6 7 10 10 7 8 8 5 4 5 7 8
9 12 15 17 20 24 25 21 8 22 15 4 3 3 2 2 4 4 3 2 3 3 3 2 2 2 2 2 3 2 3 4 1 1 3 4 5 5 6 4 6 7 6 6 7 7 7 5 7 8 6 3 4 7
9 13 14 17 21 20 5 18 26 13 4 3 4 4 4 3 5 6 5 3 3 3 2 2 2 3 1 3 2 3 3 1 2 2 3 2 3 6 4 3 5 5 5 5 6 5 5 5 5 4 4 3 3 6
9 12 13 15 13 4 17 22 7 2 3 3 3 4 7 5 4 3 4 3 3 2 2 1 2 2 2 3 3 3 2 3 3 3 2 2 4 5 4 4 5 3 4 4 3 2 1 1 1 2 1 1 3 2
8 10 3 13 3 15 17 4 2 1 2 2 2 2 2 1 3 2 5 7 3 3 2 0 1 1 4 3 4 5 2 4 3 2 2 3 2 2 3 3 3 3 3 3 4 4 4 3 3 3 2 2 0 0
4 2 9 4 17 11 3 2 3 2 1 2 4 3 3 3 4 4 4 3 4 5 3 3 4 8 1 2 3 3 4 2 2 2 2 3 4 3 2 2 2 4 4 4 4 4 5 5 5 5 7 3 2 3
3 3 4 7 4 2 2 1 0 0 4 4 3 3 3 3 3 4 4 4 5 4 4 4 3 5 5 5 4 3 4 3 3 4 4 5 4 4 3 3 3 3 5 6 5 6 5 6 7 7 8 8 8 8
5 5 3 5 1 2 2 2 2 3 6 2 3 3 3 4 6 7 3 5 5 1 2 3 6 5 6 4 6 4 4 3 2 2 3 4 5 6 6 5 5 6 6 6 6 6 5 7 7 7 7 8 8 9
10 8 8 6 6 2 2 2 1 3 4 4 2 3 4 4 2 3 5 5 5 4 5 6 6 5 3 4 5 5 5 3 2 3 4 4 4 5 8 6 5 5 4 4 4 3 6 7 7 8 8 10 10 10
3 4 6 7 3 3 2 3 4 4 3 3 1 2 4 1 4 3 4 5 5 5 5 5 6 6 5 4 4 4 5 4 5 6 6 5 4 3 3 3 3 1 2 3 5 7 6 7 7 8 8 9 9 10
3 5 3 3 3 5 4 4 3 1 2 3 2 1 3 3 3 2 1 3 3 2 2 3 4 5 5 5 5 5 6 5 6 5 5 4 4 2 2 0 1 3 4 4 5 6 7 7 8 8 8 9 10 10
2 3 2 3 4 4 4 1 3 2 2 3 3 3 3 2 3 1 2 2 0 2 2 2 3 4 6 5 4 4 2 5 5 3 2 1 0 0 1 1 1 3 4 4 4 6 7 8 8 8 9 9 9 9
2 3 5 5 6 4 2 3 3 2 2 2 2 4 3 2 1 1 3 1 1 1 3 4 3 4 2 4 4 3 3 3 3 3 3 1 1 1 2 2 1 2 2 4 5 6 7 7 9 8 8 8 8 9
5 6 5 6 4 5 4 3 4 4 4 4 3 4 3 0 1 1 2 2 1 1 2 3 1 3 2 2 1 1 4 3 1 2 3 3 3 2 1 1 2 3 5 5 6 7 7 7 7 7 8 8 10 11
6 6 9 8 4 5 6 4 6 6 4 3 5 1 1 1 1 5 3 3 2 3 3 2 2 2 0 1 2 2 3 3 1 2 2 2 2 2 2 2 3 2 6 5 6 6 7 7 7 9 8 9 10 10
6 8 4 4 3 3 2 1 3 2 4 6 3 2 2 3 5 5 2 4 3 4 3 2 2 2 2 0 1 1 2 3 4 4 3 3 2 2 2 2 3 3 5 5 4 4 5 6 6 7 8 8 9 10
6 5 8 6 4 2 3 2 5 7 4 3 4 4 6 8 6 3 4 2 3 3 2 1 1 1 1 1 2 3 3 3 4 4 3 2 2 2 3 1 2 4 3 3 3 3 4 4 6 7 8 9 9 10
4 3 5 5 3 4 6 7 6 5 4 4 5 4 4 3 2 2 2 2 3 4 3 3 2 3 3 3 2 1 4 2 1 3 3 2 3 1 2 1 2 2 2 2 4 5 5 5 6 6 8 8 8 8
4 4 4 5 6 7 5 5 3 2 1 2 1 1 1 2 2 1 1 2 4 5 4 3 3 4 3 4 3 3 5 3 3 2 1 0 2 1 1 1 1 2 2 3 3 3 4 6 7 7 9 8 8 9
5 4 3 5 5 4 3 2 1 1 2 1 1 2 2 3 4 1 2 1 2 2 3 3 3 4 4 3 4 2 1 1 1 3 4 1 2 2 1 0 1 1 3 4 3 4 5 7 7 8 10 11 12 10
4 8 6 6 3 2 4 2 1 1 1 0 1 0 1 0 3 2 1 2 3 3 5 4 4 4 6 3 1 1 3 2 3 2 5 3 3 2 1 1 1 2 4 5 5 6 8 8 7 8 8 11 11 11
3 3 2 4 4 5 3 3 2 1 1 2 4 3 4 4 6 3 0 3 2 3 4 2 1 2 0 3 3 3 3 3 5 5 5 5 4 3 2 2 3 4 6 6 6 7 9 10 9 9 9 9 10 10
Wind_Direction
294 301 306 313 317 323 318 323 330 318 320 322 316 317 324 327 342 153 252 198 173 237 278 245 250 211 278 286 274 327 326 347 326 14 349 337 311 330 297 316 194 164 233 262 135 172 208 358 305 203 347 303 161 183
294 296 301 306 314 318 316 324 325 314 316 314 306 304 305 308 316 100 253 278 175 223 261 241 260 256 248 253 265 230 271 280 296 314 0 309 306 310 328 284 346 169 168 201 7 360 335 333 6 328 314 298 43 143
283 292 296 299 307 313 313 322 317 313 314 315 314 304 297 296 296 293 218 164 234 267 281 280 279 265 213 223 210 223 229 238 278 293 279 292 288 349 330 348 311 340 16 115 144 313 324 20 3 16 352 344 331 355
277 289 293 295 304 309 311 319 312 310 309 310 312 307 299 292 285 277 190 162 161 251 268 284 301 275 226 179 196 212 251 108 309 296 217 275 268 220 285 282 276 278 314 353 98 341 329 267 17 0 351 359 13 23
271 284 286 291 301 303 311 312 313 301 306 312 310 314 305 285 296 285 186 199 171 188 262 285 290 256 293 203 220 217 220 230 248 272 231 259 262 261 237 263 248 321 345 0 47 360 304 300 329 341 11 9 20 18
268 282 282 289 296 300 310 309 302 299 302 309 314 316 316 306 280 63 284 221 190 160 262 297 306 281 315 272 235 206 201 206 221 221 218 243 270 273 267 260 227 187 343 343 307 320 306 286 315 349 19 19 25 34
268 279 281 288 293 301 307 306 301 299 304 309 316 320 321 334 112 174 220 297 164 109 178 289 293 273 303 316 87 113 172 182 216 236 224 240 263 228 272 258 321 252 320 307 326 324 349 13 319 319 11 11 7 43
270 276 278 288 293 301 304 299 292 295 300 306 310 322 329 98 99 191 180 138 139 112 89 281 276 315 5 328 352 154 172 200 205 232 200 218 244 227 255 258 262 280 303 275 269 295 298 310 348 1 358 7 24 38
271 274 278 287 294 301 299 292 289 292 298 302 317 342 61 44 280 340 158 139 63 113 188 218 271 282 343 3 253 235 205 254 294 225 230 189 208 230 243 256 264 271 262 281 288 306 335 339 354 358 4 15 60 49
266 266 279 288 297 298 294 289 290 292 297 311 93 69 42 264 99 94 46 129 332 332 229 251 230 264 335 354 325 303 176 260 252 229 128 236 259 257 258 254 256 246 259 274 305 305 351 319 335 341 358 360 320 49
259 270 284 296 298 293 288 288 291 290 284 148 118 119 66 50 53 36 77 100 332 290 225 242 229 254 197 222 258 227 305 284 284 75 244 243 258 249 280 281 268 242 236 249 257 257 249 233 280 320 322 335 33 14
260 280 291 297 295 296 298 293 285 274 148 150 123 99 73 41 44 77 296 306 227 258 209 224 247 212 261 195 257 215 276 290 254 15 236 265 254 300 317 324 346 212 214 239 252 256 246 240 238 218 203 357 29 43
264 283 293 297 302 304 306 306 117 125 117 73 64 85 103 314 47 176 231 230 243 214 223 219 252 227 205 207 257 241 248 239 189 246 245 253 318 340 348 359 38 38 90 98 94 96 103 108 85 98 105 80 83 55
268 287 296 305 307 308 339 124 128 133 94 113 129 148 188 196 234 202 204 198 213 206 209 204 250 195 219 224 227 242 247 265 279 242 249 291 309 324 344 33 73 33 45 65 63 59 89 101 103 91 74 62 50 58
272 288 301 300 316 107 135 142 115 60 102 117 119 199 207 225 235 234 232 259 228 200 163 203 236 196 224 254 221 290 295 263 248 259 259 299 312 323 32 41 46 43 30 16 8 45 91 78 74 86 128 82 94 61
268 298 274 310 174 138 141 162 11 89 74 133 204 220 232 217 261 221 219 249 218 166 128 261 238 234 240 236 192 223 239 227 255 243 272 310 312 343 23 27 22 0 354 341 327 312 304 283 277 286 291 277 288 28
235 216 338 326 155 140 150 21 18 20 250 222 241 235 196 249 231 224 199 219 146 157 195 178 205 218 111 252 233 207 216 237 255 299 292 260 274 306 329 325 1 9 1 351 331 309 290 292 280 271 270 264 276 277
195 138 27 -0 89 122 318 119 128 60 257 230 224 222 196 222 232 231 213 178 159 196 171 214 169 195 206 209 215 233 235 265 260 261 265 272 267 293 288 287 308 312 307 312 311 306 302 295 281 279 295 306 307 299
176 176 168 285 116 91 113 294 160 244 240 234 244 222 223 237 229 243 221 193 208 178 185 195 226 204 215 210 238 248 252 233 257 282 258 246 249 258 261 263 274 282 284 287 295 295 297 290 284 290 289 289 282 283
208 222 244 243 173 183 217 224 151 249 263 239 236 226 218 222 233 214 219 188 177 184 207 221 218 227 200 217 218 239 248 232 205 266 259 255 254 265 262 262 266 274 287 302 295 291 298 297 292 287 284 282 280 278
137 245 226 187 185 192 242 211 237 228 258 249 288 228 253 273 241 230 237 151 181 211 230 222 233 236 228 225 236 239 249 206 216 216 258 281 289 251 268 259 248 203 266 291 295 298 282 287 294 293 285 278 271 269
215 226 142 156 208 187 236 203 227 270 241 256 285 246 275 284 277 240 125 198 235 245 244 261 253 247 259 250 249 230 249 247 246 245 249 241 259 276 257 180 311 295 296 297 300 298 300 293 289 287 281 281 277 272
134 189 141 146 203 227 244 104 207 219 234 271 332 294 262 258 238 291 256 237 143 28 318 322 316 295 273 287 298 277 312 274 252 259 301 273 68 40 314 313 306 298 304 309 320 304 300 306 302 302 301 294 288 285
175 191 177 196 204 240 201 226 207 240 230 247 237 275 262 236 310 338 270 283 79 1 350 349 353 341 14 27 21 12 16 35 84 84 41 40 87 39 358 352 24 45 1 311 311 314 317 314 315 317 315 308 305 296
125 225 177 214 216 183 205 224 195 207 238 224 246 275 267 106 277 254 243 260 270 267 292 330 355 33 18 341 281 135 42 6 354 89 52 12 347 324 354 15 43 73 5 345 337 331 326 325 326 327 325 326 326 323
200 233 175 191 199 177 194 188 207 210 190 232 234 268 5 94 280 246 235 202 221 218 225 230 290 310 321 13 343 1 353 335 307 124 104 39 11 348 335 354 357 29 8 347 330 327 331 337 340 342 343 346 343 342
208 223 200 213 176 164 175 250 204 170 188 211 228 171 109 205 244 249 240 212 212 213 213 225 230 265 295 334 131 60 17 18 51 76 88 76 58 35 27 18 357 344 344 350 346 338 334 345 354 353 354 0 4 2
202 163 170 180 185 220 170 166 183 205 219 197 124 184 189 196 228 229 209 208 199 180 176 220 151 144 141 106 109 102 74 72 83 93 105 100 63 48 45 24 358 340 341 356 6 9 14 15 22 14 14 17 12 11
190 170 116 160 175 199 211 194 209 216 189 157 169 207 229 223 229 214 215 201 178 167 171 182 171 130 116 101 85 137 156 171 52 46 39 348 339 339 17 44 35 353 349 343 10 17 14 24 34 26 25 19 13 18
215 156 135 175 184 209 225 186 214 227 212 165 159 89 307 263 245 250 201 174 174 196 206 207 170 180 181 164 174 212 224 226 230 216 242 265 248 182 314 30 27 2 19 51 28 17 30 45 41 40 42 35 28 30
145 140 128 167 220 232 218 133 62 99 38 70 10 181 221 311 304 212 230 239 194 150 164 184 197 202 194 196 196 204 260 149 304 269 239 195 139 129 134 278 354 32 65 73 68 63 68 61 59 59 53 51 45 46
151 176 161 183 224 168 147 148 126 124 345 338 275 44 348 355 268 276 197 152 150 181 205 197 211 221 211 215 148 105 102 119 123 128 135 132 119 114 136 119 111 93 88 86 85 83 76 74 66 65 66 61 55 49
111 124 103 127 153 184 157 112 155 201 345 228 237 211 213 186 230 246 198 206 207 200 206 209 131 62 47 158 170 149 129 114 115 107 106 100 112 128 116 98 93 98 99 94 88 94 89 88 80 76 70 65 62 60